Notices

What's New in latest Release from April 7th, 2021:

- Updated Glossary, including Speed of Maximum Gust, and Total Hourly Precipitation

- Updated national and regional climate services offices contacts and prices information

- Addition of station inventory lists for 1981-2010, 1971-2000, and 1961-1990 Normals.

If you haven't already, please take our survey and provide feedback about our website: https://eccc.sondage-survey.ca/f/LanguageSelection.aspx?s=442ca660-fcf1-47c0-95a9-59707d6fd709

Hourly Data Report for December 09, 2020

FORT GOOD HOPE CS
NORTHWEST TERRITORIES
Current Station Operator: ECCC - MSC

66°14'32.044" N
128°38'39.081" W
81.70 m
2201450
71491
ZGH

Download Data

Hourly Data (December 2020)
Hourly Data Report for December 9, 2020
TIME
LST
Temp Definition
°C
Dew Point Definition
°C
Rel Hum Definition
%
Precip. Amount Definition
mm

Wind Dir Definition
10's deg

Wind Spd Definition
km/h
Visibility Definition
km
Stn Press Definition
kPa
Hmdx Definition


Wind Chill Definition


Weather Definition


00:00 -19.3 -21.7 81 0.0 24 6   99.93   -24 LegendNANA
01:00 -19.1 -21.4 81 0.0 24 6   100.03   -24 LegendNANA
02:00 -18.9 -21.3 82 0.0 25 7   100.11   -24 LegendNANA
03:00 -18.6 -20.9 82 0.0 26 7   100.16   -24 LegendNANA
04:00 -18.5 -20.8 82 0.1 25 8   100.24   -24 LegendNANA
05:00 -18.6 -21.0 82 0.1 24 7   100.31   -24 LegendNANA
06:00 -17.8 -20.1 82 0.0 24 6   100.37   -22 LegendNANA
07:00 -17.0 -19.2 83 0.0 27 11   100.42   -24 LegendNANA
08:00 -16.4 -18.5 84 0.0 26 8   100.50   -22 LegendNANA
09:00 -16.1 -18.2 83 0.0 27 11   100.57   -23 LegendNANA
10:00 -16.2 -18.4 83 0.1 26 10   100.67   -23 LegendNANA
11:00 -16.0 -18.2 83 0.0 28 10   100.74   -22 LegendNANA
12:00 -16.0 -18.2 83 0.0 27 8   100.82   -22 LegendNANA
13:00 -15.9 -18.1 83 0.2 27 8   100.90   -21 LegendNANA
14:00 -15.8 -18.0 83 0.2 28 7   100.96   -21 LegendNANA
15:00 -15.7 -17.8 84 0.2 29 6   101.03   -20 LegendNANA
16:00 -15.8 -17.9 84 0.2 27 6   101.11   -20 LegendNANA
17:00 -16.3 -18.4 83 0.0 28 7   101.18   -21 LegendNANA
18:00 -17.3 -19.6 83 0.0 33 6   101.26   -22 LegendNANA
19:00 -18.1 -20.3 83 0.0 33 5   101.33   -22 LegendNANA
20:00 -18.5 -20.7 83 0.0 1 3   101.39   -21 LegendNANA
21:00 -19.2 -21.5 82 0.0 4 3   101.45   -22 LegendNANA
22:00 -19.9 -22.3 81 0.0 8 4   101.48   -23 LegendNANA
23:00 -21.0 -23.6 80 0.0 9 5   101.55   -25 LegendNANA

Notes on Data Quality.

Legend

  • E = Estimated
  • M = Missing
  • NA = Not Available*
  • [empty] = Indicates an unobserved value
Date modified: